[[{"header":{"parameterUnit":"m.s-1","parameterCategory":1,"la1":30.2992,"la2":30.254,"lo1":-89.0895,"lo2":-89.0443,"dy":0.0025,"dx":0.0025,"nx":19,"ny":19,"refTime":"2026-03-27T21:00:00:Z","depth":0,"parameterNumber":2,"parameterNumberName":"U-component_of_WINDS"},"data":[0,0,0,-4.2306,-4.231,-4.2444,-4.2444,-4.2631,-4.2633,0,0,0,0,0,0,0,0,0,0,0,-4.2277,-4.2279,-4.2306,-4.231,-4.2444,-4.2444,-4.2631,-4.2633,0,0,0,0,0,0,0,0,0,0,0,-4.2276,-4.2278,-4.228,-4.231,-4.2444,-4.2444,-4.2631,-4.2524,0,0,0,0,0,0,0,0,0,0,-4.2391,-4.2374,-4.2278,-4.228,-4.2311,-4.2444,-4.2444,-4.2518,-4.253,-4.2578,0,-4.2623,0,-4.2631,-4.2647,-4.2648,0,0,0,-4.2302,-4.2364,-4.2391,-4.2281,-4.2313,-4.2444,-4.2381,-4.2525,-4.2539,-4.2594,-4.2626,-4.2632,-4.2634,-4.2648,-4.2649,-4.2949,-4.2951,0,0,-4.2294,-4.2307,-4.2381,-4.24,-4.2381,-4.2377,-4.2385,-4.2533,-4.2568,-4.2626,-4.2636,-4.2637,-4.265,-4.2651,-4.2947,-4.295,0,0,0,-4.2279,-4.2302,-4.2325,-4.2393,-4.2416,-4.2381,-4.2391,-4.2561,-4.2568,-4.2638,-4.264,-4.2651,-4.2653,-4.2946,-4.2948,-4.3048,0,0,0,-4.2274,-4.2292,-4.2322,-4.233,-4.2414,-4.2491,-4.2416,-4.2558,-4.2574,-4.2639,-4.2651,-4.2655,-4.2944,-4.2947,-4.3041,-4.3093,0,0,0,-4.2265,-4.2291,-4.2314,-4.2331,-4.2389,-4.2488,-4.2503,-4.2561,-4.2576,-4.2648,-4.2656,-4.2942,-4.2946,-4.3035,-4.3083,-4.3176,0,0,0,-4.2258,-4.2401,-4.2316,-4.2475,-4.2388,-4.2549,-4.2502,-4.262,-4.2694,-4.2652,-4.2944,-4.2948,-4.3033,-4.3077,-4.3169,-4.3256,-4.3294,0,0,-4.2445,-4.2424,-4.2516,-4.2444,-4.2623,-4.2527,-4.272,-4.2776,-4.2772,-4.289,-4.2897,-4.3043,-4.3082,-4.3174,-4.3498,-4.3528,0,0,0,-4.2579,-4.2646,-4.2691,-4.2762,-4.2809,-4.2852,-4.2877,-4.2898,-4.2998,-4.2835,-4.3101,-4.3124,-4.3178,-4.3219,-4.3244,-4.3289,-4.2967,-4.2967,-4.2966,-4.2861,-4.2848,-4.3,-4.3003,-4.3073,-4.3097,-4.3151,-4.3183,-4.3149,-4.3212,-4.3247,-4.3446,-4.3494,-4.3513,-4.356,-4.3292,-4.3292,-4.3293,-4.3293,-4.3133,-4.3225,-4.3177,-4.3308,-4.3292,-4.3401,-4.343,-4.3402,-4.3501,-4.3418,-4.3464,-4.3375,-4.3546,-4.3587,-4.33,-4.3299,-4.3298,-4.3297,-4.3297,-4.3316,-4.3358,-4.3381,-4.3482,-4.3561,-4.3558,-4.3656,-4.3638,-4.3622,-4.3668,-4.3703,-4.3701,-4.3697,-4.3686,-4.3686,-4.3687,-4.3688,-4.3688,-4.3689,-4.3497,-4.3519,-4.3604,-4.3665,-4.3708,-4.3762,-4.3787,-4.3829,-4.387,-4.3849,-4.385,-4.381,-4.3565,-4.3505,-4.3699,-4.3697,-4.3696,-4.3695,-4.3694,-4.3779,-4.3712,-4.3843,-4.3886,-4.3956,-4.4035,-4.4011,-4.4097,-4.4129,-4.4177,-4.4127,-4.3949,-4.3926,-4.3906,-4.3856,-4.4129,-4.4129,-4.4129,-4.4129,-4.3933,-4.392,-4.405,-4.412,-4.4186,-4.4177,-4.4325,-4.4346,-4.4356,-4.4375,-4.4332,-4.4264,-4.4244,-4.4233,-4.4205,-4.4158,-4.4502,-4.4503,-4.4503,-4.4106,-4.4098,-4.4227,-4.4237,-4.429,-4.4335,-4.4474,-4.4555,-4.4553,-4.4518,-4.4389,-4.4373,-4.4262,-4.4227,-4.4189,-4.4147,-4.406,0,0]},{"header":{"parameterUnit":"m.s-1","parameterCategory":1,"la1":30.2992,"la2":30.254,"lo1":-89.0895,"lo2":-89.0443,"dy":0.0025,"dx":0.0025,"nx":19,"ny":19,"refTime":"2026-03-27T21:00:00:Z","depth":0,"parameterNumber":3,"parameterNumberName":"V-component_of_WINDS"},"data":[0,0,0,-4.6404,-4.6405,-4.6453,-4.6453,-4.6527,-4.6528,0,0,0,0,0,0,0,0,0,0,0,-4.6399,-4.6399,-4.6404,-4.6405,-4.6453,-4.6453,-4.6527,-4.6528,0,0,0,0,0,0,0,0,0,0,0,-4.6398,-4.6399,-4.64,-4.6405,-4.6453,-4.6453,-4.6527,-4.6486,0,0,0,0,0,0,0,0,0,0,-4.6437,-4.6441,-4.6399,-4.64,-4.6406,-4.6453,-4.6453,-4.6483,-4.6488,-4.6511,0,-4.6535,0,-4.6533,-4.6534,-4.6534,0,0,0,-4.6398,-4.6437,-4.6442,-4.64,-4.6406,-4.6453,-4.6429,-4.6486,-4.6491,-4.6517,-4.6536,-4.6538,-4.6534,-4.6534,-4.6535,-4.6693,-4.6694,0,0,-4.6395,-4.6412,-4.6439,-4.6446,-4.6442,-4.6428,-4.6431,-4.6489,-4.651,-4.6536,-4.654,-4.6535,-4.6535,-4.6535,-4.6692,-4.6693,0,0,0,-4.6392,-4.641,-4.6413,-4.6444,-4.6451,-4.643,-4.6433,-4.6507,-4.6507,-4.654,-4.6536,-4.6535,-4.6536,-4.6691,-4.6693,-4.6762,0,0,0,-4.6391,-4.6409,-4.6413,-4.6423,-4.6451,-4.648,-4.645,-4.6503,-4.6509,-4.6536,-4.6535,-4.6537,-4.669,-4.6692,-4.6757,-4.6791,0,0,0,-4.6392,-4.6409,-4.6419,-4.6424,-4.6446,-4.6479,-4.6482,-4.6504,-4.6507,-4.6534,-4.6537,-4.6689,-4.6691,-4.6753,-4.6785,-4.6837,0,0,0,-4.6399,-4.648,-4.642,-4.6509,-4.6445,-4.6522,-4.6481,-4.6538,-4.6569,-4.6536,-4.669,-4.6692,-4.6752,-4.6781,-4.6833,-4.6884,-4.6907,0,0,-4.651,-4.6494,-4.6545,-4.6493,-4.6585,-4.6514,-4.6615,-4.6628,-4.6615,-4.6667,-4.6671,-4.6759,-4.6784,-4.6836,-4.7032,-4.7051,0,0,0,-4.6586,-4.6622,-4.6643,-4.6675,-4.6688,-4.67,-4.6696,-4.6701,-4.6745,-4.6646,-4.6792,-4.6807,-4.6836,-4.686,-4.6876,-4.6899,-4.6704,-4.6704,-4.6704,-4.6767,-4.6747,-4.6829,-4.6814,-4.6845,-4.684,-4.6863,-4.6867,-4.6837,-4.6872,-4.6887,-4.7009,-4.7037,-4.7049,-4.7074,-4.6913,-4.6914,-4.6914,-4.6914,-4.6928,-4.6976,-4.6934,-4.6999,-4.6976,-4.703,-4.7028,-4.7004,-4.705,-4.6996,-4.7021,-4.6963,-4.707,-4.709,-4.6919,-4.6918,-4.6918,-4.6917,-4.6917,-4.7043,-4.7063,-4.7068,-4.7111,-4.7146,-4.7127,-4.7173,-4.7151,-4.713,-4.7155,-4.7168,-4.7166,-4.7161,-4.7163,-4.7163,-4.7164,-4.7164,-4.7164,-4.7165,-4.7161,-4.7164,-4.7206,-4.7226,-4.7243,-4.7262,-4.7257,-4.7273,-4.7284,-4.7264,-4.7264,-4.7229,-4.7085,-4.7048,-4.7171,-4.717,-4.7169,-4.7169,-4.7168,-4.7329,-4.7288,-4.7353,-4.737,-4.739,-4.7426,-4.7397,-4.7431,-4.744,-4.7463,-4.7423,-4.7321,-4.7302,-4.7289,-4.7258,-4.7429,-4.7429,-4.7429,-4.7429,-4.7426,-4.7415,-4.7476,-4.7504,-4.7529,-4.751,-4.7582,-4.7579,-4.7568,-4.7573,-4.7545,-4.7503,-4.7491,-4.7479,-4.7462,-4.7433,-4.7644,-4.7644,-4.7645,-4.7528,-4.7518,-4.7585,-4.7575,-4.759,-4.7602,-4.7669,-4.7702,-4.7681,-4.7653,-4.7575,-4.7566,-4.7498,-4.7477,-4.7446,-4.742,-4.7367,0,0]}]]